Wind_Gust
14 22 20 21 24 22 22 20 23 23 23 24 24 24 25 27 25 25 23 23 28 25 27 25 25 26 26 26 25 25 24 24 22 19 19 20 19 19 16 17 22 17 19 20 20 21 21 19 23 23 24 26 24 23 25 26 25 25 28 25 25 25 25 26 25 23 22 24 26 27 29 27 25 23 20 21 21 21 17 17 19 20 21 20 20 19
15 24 22 25 19 22 19 21 21 22 21 23 24 24 26 23 26 20 26 25 29 31 26 26 28 28 27 26 27 27 26 26 25 22 19 20 19 20 27 28 25 23 21 21 20 21 21 23 21 23 25 25 28 26 27 26 27 25 24 25 25 25 25 25 24 24 22 21 21 22 25 24 24 24 25 23 20 20 18 18 19 21 21 22 23 21
23 25 22 23 20 15 18 20 20 20 21 22 24 24 25 26 22 23 25 26 33 31 31 32 31 30 29 29 29 27 27 25 24 24 23 20 20 21 24 28 25 26 20 22 23 25 26 25 24 24 24 26 26 26 27 25 25 25 25 24 24 25 25 26 26 25 25 21 20 19 21 22 25 20 19 19 20 20 17 18 18 20 20 22 22 22
25 18 25 15 17 18 19 19 20 22 23 27 26 25 27 25 27 26 23 26 29 40 34 29 31 32 28 28 28 24 23 21 19 20 20 18 18 18 24 27 28 25 20 20 23 23 25 20 23 23 25 26 25 26 26 27 27 26 25 24 25 25 26 26 25 24 21 20 17 17 17 17 18 20 19 17 17 19 18 18 21 20 21 20 20 22
24 28 24 19 18 17 21 21 22 28 28 24 25 25 26 22 27 33 29 30 28 29 30 33 33 29 23 24 25 21 20 19 20 19 16 15 14 26 22 20 20 23 19 23 23 23 20 19 22 22 22 25 26 25 26 27 27 24 25 25 25 25 25 25 25 24 22 21 20 20 17 17 17 16 19 19 20 20 20 19 20 22 21 21 23 23
28 23 23 19 16 19 20 24 24 25 30 31 27 23 25 27 31 28 29 30 31 30 27 26 33 27 21 23 24 21 21 21 15 15 13 14 15 19 26 21 19 24 24 23 19 20 21 18 19 20 22 23 23 24 23 24 25 22 25 25 24 23 25 25 24 24 23 23 25 25 25 24 24 23 22 25 24 23 24 24 21 20 21 22 23 23
25 25 17 18 20 19 22 24 27 27 29 26 28 25 24 27 29 29 29 30 29 31 26 27 33 35 23 24 21 19 19 19 18 18 17 14 14 17 19 21 23 26 25 28 22 21 21 20 20 17 19 22 21 21 21 22 23 21 24 25 25 24 24 24 23 25 23 23 23 24 25 24 24 24 24 22 22 22 24 22 22 21 20 22 24 23
17 21 22 26 26 22 23 27 24 26 27 29 22 27 28 29 28 29 31 31 35 27 30 29 32 33 31 24 20 17 16 18 17 16 14 15 17 18 19 22 20 27 20 24 25 25 20 19 19 20 20 20 20 18 21 22 22 23 24 25 25 24 24 23 23 25 25 25 24 23 24 24 25 22 22 22 22 21 21 23 23 23 20 22 23 23
24 25 20 20 20 26 26 24 26 25 32 33 28 27 27 29 31 32 32 32 31 33 31 24 26 36 27 22 17 14 18 13 12 12 15 19 22 20 21 23 21 20 20 23 22 21 20 19 19 18 18 19 19 19 21 21 21 23 23 25 25 24 23 24 24 25 26 24 25 26 26 25 23 22 21 21 22 21 20 20 21 22 21 20 20 22
29 22 22 21 23 26 23 26 25 28 33 24 26 28 32 32 33 33 34 34 32 31 29 27 26 35 26 19 18 15 15 16 17 17 21 20 19 18 21 21 21 22 24 23 21 20 19 17 17 16 17 16 18 18 18 19 20 21 23 25 26 24 24 24 25 26 26 25 24 26 24 25 23 23 22 20 21 22 20 20 21 23 23 23 20 21
26 20 18 28 20 21 23 25 27 27 29 27 27 30 32 29 29 29 31 32 27 26 30 23 20 23 30 21 21 20 15 15 17 18 18 21 22 20 18 20 22 23 23 23 23 24 19 17 18 18 18 16 15 14 16 17 19 21 22 25 26 26 24 24 25 25 27 26 25 26 25 25 24 23 22 23 22 21 20 21 22 22 21 21 21 20
27 26 23 24 14 19 21 29 25 26 25 24 33 32 31 27 24 26 27 23 27 30 24 21 24 21 28 21 25 21 22 19 19 20 22 22 22 22 20 22 21 21 22 22 25 23 18 17 19 19 19 18 17 16 16 18 20 21 23 25 26 25 25 25 27 26 28 29 27 24 24 25 23 23 23 24 24 23 23 22 22 22 21 21 22 21
25 21 23 18 18 24 23 24 24 27 25 28 33 28 27 29 30 23 22 26 28 32 24 25 24 27 27 24 27 32 24 21 21 23 23 21 21 20 20 20 20 21 21 22 23 23 21 22 23 21 20 19 18 18 18 20 21 21 23 24 27 27 26 26 26 28 28 28 27 27 25 23 23 23 22 22 22 20 23 22 22 22 23 23 22 22
21 22 17 17 19 24 23 26 25 24 26 30 26 25 24 29 24 22 24 26 28 25 21 27 31 34 28 36 26 24 24 21 21 19 19 20 18 18 20 20 22 22 22 24 23 23 23 23 23 22 21 21 20 20 20 20 20 21 23 24 26 28 28 27 26 28 29 29 27 24 24 23 24 23 23 23 23 21 21 22 22 23 24 25 25 24
17 24 25 19 19 25 22 24 21 25 28 27 25 30 25 26 34 27 27 27 28 31 33 29 37 32 27 21 30 21 18 18 18 19 16 16 16 16 19 22 23 22 23 26 24 23 22 22 21 22 22 21 21 21 21 20 20 22 23 26 27 29 30 30 31 29 30 31 28 27 25 24 24 25 25 24 22 21 21 20 22 22 23 22 24 25
20 25 24 24 20 24 25 18 19 21 29 31 28 24 26 24 21 28 28 33 35 39 36 26 32 26 34 27 29 24 17 17 16 15 14 17 18 19 21 23 24 25 27 28 28 27 25 20 20 21 20 20 21 21 20 21 21 21 23 25 27 30 31 32 30 29 30 29 28 27 27 26 26 26 27 26 23 22 20 20 21 23 21 22 22 23
16 22 19 31 26 24 18 18 22 19 21 24 32 28 25 26 26 30 26 28 28 32 40 25 33 30 25 27 28 27 23 19 16 14 18 24 26 29 30 31 31 29 29 31 32 33 30 30 30 27 19 20 21 22 23 23 23 23 24 25 28 30 29 30 31 30 30 31 29 28 28 28 28 29 27 27 25 22 21 21 21 21 22 22 21 24
18 25 28 26 24 20 21 21 23 24 27 29 26 24 27 26 27 28 33 23 26 36 40 29 33 31 28 33 23 27 25 17 17 24 30 32 32 29 30 31 33 31 31 33 34 32 32 31 31 33 31 29 23 22 24 25 23 24 24 24 28 30 32 32 31 31 30 29 30 29 31 30 30 29 28 27 25 24 23 22 21 21 22 22 23 22
20 28 21 21 21 21 21 24 27 26 26 28 27 24 31 22 25 20 25 27 28 32 36 33 29 35 30 36 29 26 27 23 23 28 30 33 32 31 30 32 31 32 33 34 34 35 33 33 34 34 33 33 32 32 30 26 26 24 24 26 27 29 30 30 31 29 31 30 29 30 30 30 30 28 28 28 26 24 24 23 22 22 22 21 21 22
17 25 25 17 20 25 29 27 25 22 15 19 22 30 23 29 25 30 27 33 35 35 31 39 34 40 22 27 23 27 27 27 25 26 30 32 33 33 33 34 34 33 34 37 36 35 35 35 35 36 34 36 36 34 30 29 28 25 26 24 25 26 27 27 26 27 28 30 30 29 28 29 29 28 27 27 26 26 24 23 23 22 21 21 22 21
22 15 24 19 23 26 28 18 22 23 26 27 25 25 25 26 25 31 31 32 32 36 35 37 43 37 17 20 23 31 34 31 27 32 32 33 34 35 35 36 35 34 34 37 37 36 36 35 36 37 35 37 36 32 32 31 30 28 26 24 25 26 26 25 26 28 29 28 28 25 26 28 26 26 26 24 25 24 24 23 21 22 21 21 22 21
16 16 23 29 27 22 21 18 21 25 25 25 24 23 22 24 26 25 29 25 33 39 36 33 44 43 20 25 27 25 32 31 29 33 35 33 34 34 35 32 35 33 34 36 36 36 37 35 37 38 40 37 40 38 36 37 32 30 27 27 22 23 23 23 27 28 27 24 24 23 24 26 24 25 24 24 24 25 26 23 23 22 21 20 22 22
15 22 26 23 24 25 24 26 24 24 18 20 22 22 19 21 20 25 29 26 31 36 34 37 44 48 28 30 30 31 33 31 33 34 34 32 32 34 36 36 35 34 36 38 38 38 37 34 35 36 36 37 38 38 36 35 36 32 29 29 24 24 23 21 21 19 20 21 19 21 21 20 20 21 23 21 22 22 22 23 23 21 22 22 22 21
15 27 24 25 23 27 30 30 23 19 20 21 24 23 22 20 21 24 29 29 35 34 35 37 47 50 25 27 31 30 30 31 35 31 35 36 37 37 36 35 35 35 36 37 39 37 38 35 35 37 35 40 38 36 37 36 36 35 32 32 30 30 27 24 18 21 23 22 22 23 21 21 20 19 20 20 20 20 21 23 22 21 22 21 20 21
22 13 22 32 30 21 17 19 21 18 18 20 24 24 25 27 26 28 31 29 38 36 35 42 53 42 27 29 29 30 33 35 34 34 35 36 35 36 36 35 34 34 36 38 38 38 37 37 37 37 38 39 38 38 35 35 35 35 32 32 34 33 29 23 23 22 21 14 16 16 16 18 18 18 20 20 20 20 20 20 21 19 21 20 22 20
20 19 19 23 27 28 24 20 23 26 27 30 24 26 23 24 26 28 28 26 33 28 32 44 46 37 35 34 35 36 37 38 35 34 34 33 32 36 35 33 33 34 36 36 36 36 37 37 38 38 37 40 39 38 37 36 36 35 35 31 32 33 31 29 25 25 23 19 18 17 15 17 17 19 20 20 20 22 21 22 21 20 20 20 20 20
18 17 20 23 25 29 28 29 24 26 29 32 25 26 28 25 26 26 30 32 35 30 36 37 39 41 39 37 37 37 41 39 35 34 35 35 34 36 33 34 33 34 35 36 34 35 36 35 37 37 39 40 37 36 37 38 39 39 36 35 36 37 31 28 24 23 24 22 14 13 17 20 20 18 17 17 20 21 22 22 21 21 22 20 19 20
20 22 20 22 25 28 28 29 26 24 29 30 29 28 26 26 25 25 27 34 27 36 45 33 29 39 40 40 39 39 36 36 36 33 34 35 35 36 37 35 31 38 37 34 32 34 37 38 38 38 39 37 38 39 39 40 41 41 37 37 35 34 31 30 26 25 25 22 17 15 16 14 14 17 19 20 20 21 20 21 21 21 21 21 21 21
19 21 20 23 26 27 27 27 26 28 26 29 29 29 28 24 24 28 29 30 29 35 46 37 39 44 41 36 35 34 34 34 33 33 33 34 36 35 36 36 39 39 36 33 32 35 37 38 39 39 36 35 35 37 39 41 39 40 39 35 33 30 28 25 25 26 29 28 19 16 16 15 14 16 19 18 17 19 18 18 19 20 20 21 21 21
21 22 21 21 25 25 26 28 27 29 30 29 29 29 27 26 28 30 33 32 34 36 39 41 38 41 40 37 36 36 31 30 33 32 33 33 35 35 36 38 38 36 34 33 34 36 37 39 39 37 36 35 36 37 39 41 40 40 42 36 31 27 24 24 26 29 29 28 24 17 16 12 13 17 19 21 18 19 21 19 17 19 20 21 21 21
15 20 17 24 28 26 22 26 26 27 27 31 27 28 31 32 31 31 32 31 33 36 33 35 39 44 37 33 31 27 30 32 33 33 33 31 32 35 35 35 34 35 34 35 34 36 37 37 38 37 35 34 36 37 39 39 39 39 41 40 35 27 26 29 28 30 31 29 24 19 17 13 13 14 13 15 17 21 22 17 18 18 20 19 19 20
15 23 20 23 26 27 19 21 22 23 26 31 35 36 36 34 33 27 32 26 30 38 39 38 40 42 31 30 33 33 35 34 32 31 31 32 33 34 33 34 33 33 35 36 37 36 35 35 35 35 34 34 35 37 39 41 42 40 37 37 37 34 30 27 29 30 29 25 23 20 15 14 15 12 12 17 18 16 14 15 20 23 21 20 17 18
19 22 20 18 25 27 20 21 27 30 32 30 29 21 13 17 22 31 36 34 33 31 34 32 35 34 35 35 37 34 32 31 31 30 31 32 33 33 33 33 32 34 36 38 38 35 34 34 33 34 34 33 34 35 38 41 41 41 40 42 38 31 30 29 26 27 27 24 23 24 17 16 13 14 13 12 11 16 20 19 17 17 18 17 15 14
18 20 22 20 28 29 25 24 25 31 27 27 18 12 17 25 32 35 35 30 29 30 36 34 36 33 33 34 33 32 31 34 33 31 31 34 35 32 34 35 36 36 36 34 35 34 34 34 35 36 35 35 36 37 36 38 37 38 39 42 39 35 30 30 29 28 28 27 26 26 20 15 15 15 13 12 13 12 17 16 12 10 14 16 15 14
18 21 21 21 25 28 26 26 27 27 28 17 12 19 28 33 29 28 30 32 30 30 32 34 33 32 31 32 32 32 33 34 34 37 34 34 33 34 35 37 38 36 31 30 32 34 33 33 33 35 36 35 37 38 38 38 35 35 37 39 36 35 34 29 31 25 24 25 26 24 20 18 14 14 14 16 14 12 12 13 13 15 13 13 19 18
19 18 19 21 23 25 26 22 31 28 18 27 33 30 22 18 22 28 34 34 26 27 28 32 32 32 32 33 32 31 32 34 38 37 35 34 34 36 36 34 31 28 28 28 28 30 31 32 31 32 35 36 35 37 38 38 36 37 39 40 39 35 34 31 27 25 22 22 23 25 22 15 13 13 13 12 12 13 14 14 12 9 12 14 13 14
20 20 18 23 19 26 24 26 35 32 35 27 19 16 24 29 27 27 34 41 29 29 29 31 31 31 31 29 30 32 32 36 40 42 33 35 34 32 32 30 28 27 27 29 30 31 30 29 30 30 32 33 34 37 37 37 37 38 39 37 37 35 32 31 29 27 25 21 20 20 22 20 14 12 11 10 12 15 14 14 13 13 14 9 11 12
20 23 16 19 19 18 23 29 32 27 29 20 17 19 20 22 21 19 24 44 29 27 26 28 29 28 29 30 33 35 36 42 45 41 32 32 32 31 32 32 33 33 32 32 32 33 34 32 31 28 30 32 32 34 35 37 39 40 38 37 36 33 33 31 29 27 29 28 23 21 22 21 20 15 12 13 14 13 10 10 11 13 13 13 12 10
19 19 20 21 25 21 22 27 30 26 30 24 19 20 21 23 17 16 25 39 30 22 22 28 30 32 35 38 39 39 41 45 45 42 36 34 35 36 37 36 37 35 34 35 36 36 34 32 28 30 32 30 30 34 36 37 38 37 36 35 35 33 32 31 31 31 31 32 24 20 20 20 17 17 15 15 13 12 12 11 9 9 9 10 9 9
22 23 20 26 22 24 22 27 29 24 27 15 21 22 22 20 15 20 29 28 17 23 29 31 35 38 38 38 39 41 41 44 45 42 38 39 39 39 38 38 36 35 35 35 36 33 32 32 30 28 27 27 27 29 33 34 35 34 35 36 34 33 31 30 31 31 30 29 26 21 23 21 19 17 17 17 12 11 12 10 8 8 9 11 13 16
25 24 24 26 24 23 20 30 30 31 27 18 19 19 20 18 20 23 33 29 28 33 36 37 38 39 38 40 39 45 40 42 43 41 41 39 40 40 39 38 38 38 37 34 35 27 33 32 31 28 26 27 25 24 30 33 34 34 33 34 32 32 34 30 28 27 27 25 23 23 23 23 21 19 19 16 14 12 10 9 7 8 9 9 11 12
27 24 22 23 25 26 23 29 30 28 25 16 15 14 16 20 28 28 30 35 37 41 42 40 40 39 38 40 41 41 43 41 41 41 42 41 40 40 40 41 40 39 37 36 34 33 32 31 29 29 28 26 27 24 25 29 33 33 32 32 30 31 33 29 29 27 26 24 22 19 19 19 21 19 16 15 14 13 11 10 7 7 9 10 9 9
20 23 23 23 23 24 23 25 25 25 12 14 13 22 18 25 30 34 42 42 39 40 41 42 41 39 38 40 39 41 42 42 42 42 42 42 41 39 38 40 38 37 37 35 36 34 33 29 29 28 26 27 23 22 22 25 29 31 30 31 30 29 32 34 33 29 28 26 27 24 19 16 16 18 17 14 13 12 12 11 10 9 7 7 7 7
13 22 24 23 19 25 24 28 27 15 17 18 26 31 28 32 38 40 41 47 44 42 40 42 42 41 40 42 42 41 43 43 43 43 42 42 41 38 38 35 37 38 38 37 36 34 31 32 31 33 28 26 23 21 21 24 27 30 32 32 30 29 31 34 32 30 30 25 21 18 17 18 18 17 16 15 15 14 13 12 10 10 10 9 9 10
18 28 18 23 16 22 27 28 28 27 30 30 29 33 37 37 36 35 39 43 46 46 39 43 42 43 43 43 43 44 46 43 43 42 42 40 41 41 38 39 39 39 38 37 35 32 31 32 29 29 26 24 21 21 19 20 25 30 31 31 29 28 29 27 30 29 29 27 17 20 20 19 18 17 16 16 16 16 15 13 13 12 11 11 12 12
14 16 15 23 30 25 34 36 39 37 31 31 30 32 37 37 36 36 35 40 37 40 41 43 42 44 45 42 46 46 46 42 43 44 42 42 42 40 39 39 38 37 37 37 34 31 32 33 31 29 27 25 23 22 17 17 19 23 25 29 30 27 27 26 27 28 28 28 19 19 23 18 15 15 17 17 18 17 16 14 15 14 13 13 13 13
22 21 22 28 21 25 34 12 19 28 33 35 36 35 34 34 35 34 35 38 39 40 43 40 43 43 43 45 45 46 46 43 43 44 43 44 44 41 40 39 37 36 35 35 34 29 29 26 28 27 25 23 21 21 20 18 14 18 22 24 29 29 26 23 23 25 26 25 17 20 20 15 21 20 18 17 17 17 16 16 16 16 15 14 14 13
18 16 22 24 26 31 39 34 36 35 31 31 36 36 34 34 35 35 36 36 39 40 41 42 42 43 41 43 42 41 43 43 42 42 42 42 41 40 38 36 35 35 34 32 32 30 30 30 29 30 28 26 23 22 19 16 17 18 19 21 22 24 26 23 22 25 27 29 28 17 18 16 8 12 19 20 20 19 17 16 16 16 16 15 14 13
19 18 23 19 33 35 33 33 32 37 36 27 25 26 32 36 41 41 40 39 39 40 42 43 41 40 38 39 36 38 40 43 41 40 41 41 39 37 36 34 32 32 31 30 30 28 28 24 24 25 27 27 24 22 20 15 17 21 19 19 20 22 23 25 22 22 23 27 26 16 15 16 17 18 17 17 17 17 17 17 16 17 15 13 13 13
21 26 21 24 32 32 28 30 31 44 49 39 32 32 32 35 39 42 41 43 41 40 40 41 42 39 38 37 36 37 39 38 38 38 38 39 37 35 34 34 32 31 30 28 29 28 27 26 26 27 26 26 23 21 20 15 15 17 19 19 20 20 20 22 23 21 21 22 22 22 19 17 18 18 19 19 19 19 19 9 11 14 18 17 10 13
21 19 21 25 28 35 33 32 30 33 39 40 42 43 42 40 40 41 40 41 41 40 38 38 40 42 42 38 36 34 33 37 37 35 34 34 34 33 33 31 31 30 30 26 26 27 25 26 26 27 27 26 24 22 20 19 19 17 16 16 17 18 20 20 21 21 20 19 18 18 20 19 19 19 20 21 20 21 21 21 18 20 19 16 11 15
Wind_Speed
5 6 7 8 8 9 7 10 14 14 13 13 12 12 12 12 12 12 12 10 11 10 15 9 9 12 13 14 14 15 13 12 12 10 7 7 8 5 7 11 11 8 11 12 11 8 8 7 5 7 8 6 12 9 6 7 7 8 8 8 9 8 8 8 9 9 9 12 13 13 12 10 11 10 9 8 7 7 7 8 9 7 6 7 8 7
4 7 9 12 9 12 10 10 12 14 10 11 11 11 10 10 10 11 12 15 11 10 13 15 17 15 12 12 13 13 13 14 13 12 10 7 5 7 14 15 14 10 10 9 6 7 6 6 8 6 6 6 3 12 7 7 7 7 7 8 8 8 9 9 9 9 8 9 9 10 12 11 11 10 9 9 8 8 7 8 8 7 7 7 6 5
7 10 9 12 5 8 10 9 10 11 11 12 9 10 12 8 9 12 12 7 12 10 11 17 17 15 16 14 12 12 13 10 9 8 11 10 2 8 13 12 10 10 9 4 5 5 3 4 7 3 2 3 5 12 11 6 8 8 8 7 7 7 9 8 9 8 9 8 8 8 9 10 9 8 9 8 8 8 7 7 7 7 7 8 10 10
11 6 7 6 9 10 11 8 10 9 13 12 11 10 9 10 11 10 10 12 11 11 14 15 16 14 14 10 12 9 9 5 5 7 8 4 3 7 15 10 10 11 10 8 4 7 7 3 6 5 2 1 4 9 6 7 8 7 7 7 8 8 8 8 9 9 9 8 7 8 8 9 8 9 8 7 8 8 8 8 8 8 8 8 7 9
10 10 14 11 6 8 10 12 12 12 11 12 14 7 11 10 13 14 12 14 15 16 16 17 15 8 7 8 6 8 11 9 8 8 4 1 7 16 13 12 11 10 9 11 12 10 12 11 5 6 6 5 6 5 7 10 9 6 8 8 8 7 8 8 9 10 8 8 8 7 6 8 7 6 7 7 7 8 8 8 8 8 9 10 8 8
11 14 4 11 7 9 10 10 12 12 10 8 16 8 12 14 14 17 18 17 11 11 10 12 10 11 11 11 10 6 7 7 5 1 5 3 6 14 16 10 10 10 10 10 11 12 12 11 9 8 5 1 4 8 8 8 11 8 8 9 9 7 8 8 9 9 8 7 8 7 8 9 8 8 9 9 10 9 10 10 8 8 9 9 9 8
10 14 8 8 11 7 9 9 13 13 11 10 12 16 15 17 18 18 18 14 11 12 10 11 12 9 7 11 7 6 7 7 7 8 7 4 7 6 10 9 9 8 8 8 10 11 11 10 9 8 4 3 6 6 3 10 8 13 9 9 9 8 7 7 8 10 8 8 8 9 9 8 9 9 8 8 8 9 8 7 9 9 9 10 9 9
4 10 13 16 16 8 8 9 11 15 12 10 13 18 18 17 17 17 17 14 12 13 15 17 10 9 9 9 11 7 4 3 2 6 5 7 8 9 7 8 8 9 7 6 9 10 9 9 10 8 8 6 7 6 3 0 4 9 13 8 9 9 8 8 7 10 9 9 9 9 9 9 10 10 9 11 9 8 8 9 10 8 8 10 10 9
14 13 12 11 9 8 10 9 14 15 12 13 17 17 16 16 16 16 13 11 12 12 10 10 8 8 7 8 5 4 6 1 3 6 8 11 13 9 9 7 9 8 8 8 9 10 9 9 8 7 6 7 7 5 3 2 4 6 8 13 9 9 9 9 10 9 11 9 9 9 9 10 9 9 9 8 8 9 9 10 9 9 9 9 9 9
10 11 9 9 8 9 8 12 14 16 12 12 14 15 16 17 18 18 15 15 12 10 8 11 8 8 8 4 2 5 5 5 4 8 13 12 8 7 7 7 8 9 12 14 13 12 10 9 9 8 8 10 9 6 5 4 6 6 6 13 14 11 9 9 10 10 11 11 9 10 10 11 10 9 9 9 10 10 9 10 10 9 9 9 8 9
14 11 10 8 6 5 9 11 12 14 15 17 15 13 13 14 10 11 12 10 9 6 9 10 9 8 9 5 6 2 2 4 7 5 4 5 11 7 7 7 8 7 9 9 10 11 11 11 11 11 12 10 10 9 7 6 5 5 9 10 12 13 9 9 10 11 12 11 11 10 11 12 11 11 9 8 10 10 10 10 10 10 9 9 9 8
13 4 4 5 4 4 5 9 12 12 14 15 10 11 11 9 9 9 8 8 6 7 8 7 8 10 8 3 5 10 12 10 11 12 12 12 12 11 11 11 11 11 9 8 9 11 11 9 11 11 11 11 10 10 10 8 6 5 4 7 11 13 12 10 10 10 11 10 11 11 11 12 11 10 9 9 9 11 11 11 10 10 9 9 9 9
8 6 6 10 9 9 6 9 9 10 10 10 10 9 8 7 5 4 7 5 5 8 8 11 14 10 5 10 8 8 8 12 13 12 12 12 12 12 12 13 11 11 11 10 10 9 9 10 11 11 10 11 10 10 10 11 11 9 8 7 10 13 12 11 9 9 10 10 11 11 11 10 9 10 9 9 9 9 10 10 10 10 10 9 9 9
5 7 7 7 3 9 9 8 9 8 9 11 9 7 8 8 5 5 6 5 7 8 10 14 19 10 8 8 9 14 14 13 12 11 12 12 11 11 12 11 11 11 12 11 10 10 9 9 10 9 10 11 11 11 11 11 10 10 10 10 13 16 16 15 13 16 13 11 11 10 10 9 9 9 9 8 8 8 8 7 9 9 9 9 10 10
5 3 9 9 3 12 9 8 9 9 10 10 11 10 9 8 7 5 7 6 9 11 13 15 12 5 10 6 17 8 11 10 10 11 10 10 9 8 10 11 11 12 12 12 12 10 10 8 8 7 8 9 10 11 11 10 11 11 12 7 9 8 12 13 13 12 13 12 14 11 11 10 8 8 8 8 7 6 7 7 8 8 8 8 8 9
9 9 2 11 9 10 10 7 9 10 12 8 7 9 9 6 5 7 8 11 11 12 10 6 5 8 8 6 11 11 6 10 9 9 5 7 7 8 8 10 10 10 15 15 17 17 17 13 9 7 8 8 9 11 10 12 11 12 11 6 1 2 9 11 8 6 8 10 11 13 15 15 11 8 7 6 6 5 4 6 7 7 8 7 7 8
6 7 11 17 12 11 10 8 9 7 5 8 12 8 7 11 10 6 7 10 10 7 7 4 7 6 7 4 15 16 14 10 10 7 12 16 18 19 16 16 18 16 15 16 16 16 17 17 18 18 11 7 7 8 9 11 12 14 8 6 8 7 7 9 10 9 8 9 7 9 11 15 16 13 9 7 7 6 5 5 6 6 7 7 7 7
6 9 14 12 13 11 11 10 12 13 10 8 8 7 11 10 11 6 6 4 5 9 6 7 9 9 9 2 7 11 8 5 9 15 18 16 17 17 16 16 16 17 16 17 19 17 17 17 17 16 17 20 17 14 12 12 12 12 8 9 9 10 8 8 10 10 9 10 9 8 8 11 12 14 15 10 8 7 7 6 5 6 6 7 7 7
8 9 7 10 10 9 10 11 14 15 15 11 10 7 9 4 8 5 4 7 7 7 5 7 10 10 7 6 7 5 5 9 14 13 16 16 15 15 15 17 17 17 17 17 17 17 16 16 15 16 18 17 17 18 19 16 14 13 11 10 9 8 5 9 8 8 8 7 7 6 6 6 9 9 14 13 10 7 7 7 5 5 6 6 6 6
6 7 7 5 9 13 13 9 8 10 5 2 5 8 8 9 8 8 5 7 7 10 9 10 12 7 5 6 7 18 18 17 13 14 13 14 14 13 13 14 15 15 14 16 15 15 15 16 18 19 16 18 18 18 17 18 17 16 15 12 12 8 7 7 8 7 7 9 7 8 7 5 6 7 7 8 11 13 10 8 5 6 7 7 6 7
7 1 7 7 11 12 9 6 7 6 7 8 8 8 7 7 8 10 8 9 8 7 8 8 10 6 4 8 11 14 12 13 13 11 11 11 12 12 12 12 12 14 13 13 14 14 15 14 15 17 17 18 18 16 17 17 17 17 13 14 12 14 10 7 6 7 5 4 7 7 3 1 1 5 7 8 5 7 9 10 9 6 5 6 7 7
3 4 6 9 10 8 9 8 12 9 9 8 7 9 8 8 8 6 8 7 8 8 6 7 11 11 4 9 14 12 12 11 12 12 9 11 12 13 11 12 11 11 13 13 13 14 13 14 15 16 16 16 16 16 20 17 17 17 18 14 13 13 12 11 8 5 4 2 4 5 4 5 4 5 7 7 7 6 9 8 6 10 7 7 7 7
4 4 7 8 10 11 13 16 14 15 7 6 9 9 5 7 8 7 8 6 8 9 11 11 11 16 6 10 11 8 10 12 11 10 10 10 10 10 11 12 11 10 12 11 12 14 13 10 12 13 13 13 13 14 14 14 15 16 16 17 15 14 13 10 10 8 6 5 4 5 5 7 9 8 8 7 6 7 8 8 7 7 6 6 7 9
3 4 8 10 10 11 16 18 14 12 8 8 10 11 7 6 8 7 7 9 10 11 8 8 11 13 6 8 10 6 17 17 12 11 10 10 9 11 12 12 12 12 11 13 10 7 12 14 11 11 11 13 15 13 14 12 14 13 14 15 17 19 18 14 11 10 9 7 7 7 6 9 8 9 6 6 6 8 8 6 8 7 6 4 5 9
3 1 6 9 7 7 7 7 6 7 5 7 8 8 7 9 12 11 12 9 9 13 15 12 15 11 7 8 10 16 18 17 16 12 9 11 10 11 11 12 12 13 13 14 15 14 10 12 14 14 16 14 15 16 14 15 13 14 14 12 14 16 18 14 14 14 12 8 6 6 5 8 8 9 8 6 5 7 7 7 7 6 5 5 7 7
3 6 5 5 7 8 5 3 3 6 7 8 10 11 11 13 14 11 8 8 10 11 16 12 12 14 14 13 15 16 16 17 18 18 9 10 11 13 13 12 12 13 13 15 13 14 13 12 13 14 15 17 15 15 16 16 15 13 14 13 11 12 14 17 14 14 14 11 8 5 5 5 6 8 8 7 5 6 7 8 7 6 6 3 5 4
3 5 8 9 9 10 9 10 12 12 12 13 14 16 16 13 13 12 10 10 11 10 14 16 17 17 18 15 16 17 17 19 19 16 18 15 13 14 16 15 12 12 14 16 14 12 13 12 12 12 13 15 18 18 16 15 17 15 13 14 14 12 12 13 14 14 14 13 8 7 7 7 7 7 8 7 5 5 5 6 4 4 7 6 3 4
7 8 10 13 14 14 15 16 15 14 15 16 17 15 15 15 14 14 10 13 11 12 17 14 15 16 16 17 19 20 18 18 17 15 13 15 14 14 16 16 16 15 15 14 14 15 14 13 12 12 12 13 14 17 18 16 15 16 14 14 14 14 13 11 13 14 15 14 11 9 8 6 6 6 7 7 6 4 3 4 6 10 10 5 4 3
5 6 8 10 14 15 16 17 16 14 14 15 17 18 18 16 14 14 16 17 15 11 16 16 19 21 20 19 18 17 18 17 19 18 14 15 17 17 15 17 18 17 17 17 15 14 13 12 10 10 12 13 14 15 17 18 15 14 14 13 13 13 13 11 12 15 15 17 13 10 10 6 7 7 7 6 6 6 4 3 4 7 5 6 5 2
1 6 10 11 15 14 14 15 15 17 18 18 18 19 18 16 15 16 17 17 17 18 20 20 22 24 18 15 16 17 14 14 14 14 15 17 18 16 16 16 16 17 17 18 18 16 14 13 11 10 11 11 14 15 17 16 16 15 15 14 13 12 12 12 13 14 16 16 15 10 9 4 5 7 6 5 6 6 5 4 5 6 5 4 3 3
4 3 4 9 11 13 14 17 17 18 18 18 16 15 16 14 15 16 16 16 18 19 19 18 18 17 13 13 13 12 13 14 15 17 17 16 17 17 17 18 17 17 18 19 18 18 16 13 12 13 13 13 14 14 14 14 16 16 16 16 14 13 12 12 13 14 17 16 15 11 8 5 3 8 8 6 5 5 8 7 5 4 3 0 1 3
5 6 7 8 9 12 10 13 14 14 14 16 16 17 18 19 19 15 10 7 9 12 15 17 16 14 12 13 15 15 16 17 18 17 16 15 17 16 18 18 19 20 19 19 20 17 16 16 14 13 14 14 15 15 15 15 15 15 15 15 15 13 11 13 14 15 15 13 13 11 8 4 2 4 6 4 4 5 6 6 5 4 3 1 2 3
6 7 5 5 9 11 11 12 14 13 13 13 14 11 6 5 6 9 11 12 13 12 10 9 13 12 14 15 18 18 16 17 17 16 16 18 19 18 18 20 20 20 22 21 19 19 16 16 16 14 12 14 14 14 15 15 15 14 14 15 14 13 12 13 13 14 15 14 11 14 11 6 5 2 2 7 7 4 5 4 4 5 6 5 5 4
8 9 7 7 9 10 12 12 12 10 10 8 3 4 7 10 11 12 11 10 10 8 8 11 15 15 17 15 16 16 17 17 16 16 17 16 16 19 20 19 20 20 20 19 15 15 16 15 14 13 14 15 15 15 14 14 14 13 12 14 15 14 13 12 13 13 14 15 12 14 12 9 6 6 5 1 6 7 2 2 4 5 5 5 5 4
9 9 8 7 8 9 9 10 9 11 9 2 4 4 7 7 7 8 10 11 11 13 13 15 17 17 16 15 16 18 18 17 17 19 20 19 19 18 19 21 20 18 18 14 14 14 13 13 15 16 14 15 15 13 12 13 13 13 13 13 15 15 14 13 12 12 14 14 10 13 12 11 3 4 7 9 3 2 2 2 1 1 1 3 4 3
8 7 5 6 6 7 8 6 6 5 3 7 11 14 5 4 5 8 9 9 10 13 15 16 16 16 16 17 18 15 16 18 19 20 20 18 17 19 18 14 14 13 16 12 11 11 13 16 16 15 14 12 12 13 13 13 12 13 14 14 14 15 14 14 12 13 13 13 11 11 14 10 6 3 3 3 7 8 6 7 6 1 2 3 5 5
11 8 6 7 6 8 6 9 13 13 16 13 8 4 7 5 5 6 7 9 9 13 16 15 16 15 14 14 17 17 18 19 19 19 20 19 19 19 17 17 15 16 16 15 14 13 12 12 14 16 7 5 8 11 14 14 14 13 13 14 14 14 14 14 12 13 13 13 10 9 13 10 7 5 4 4 6 7 8 6 5 5 2 4 5 6
11 11 6 7 4 7 8 9 8 7 8 3 8 3 4 2 1 3 6 12 9 13 14 16 17 18 17 17 18 19 18 18 18 17 17 19 20 19 19 19 20 19 19 18 17 17 16 13 13 10 4 7 8 11 13 14 12 12 12 13 13 14 14 14 14 12 15 17 12 9 11 13 10 6 4 4 4 4 4 5 6 1 2 4 2 4
11 9 8 7 7 6 8 8 7 7 6 5 7 2 2 1 4 3 5 12 8 9 11 16 16 16 16 17 19 17 16 17 18 18 16 19 20 21 21 20 20 20 20 19 17 17 20 17 13 13 6 7 10 11 13 14 13 11 11 13 13 12 12 13 13 11 13 17 15 9 7 12 9 4 3 6 4 3 3 3 3 1 1 1 2 2
12 10 7 9 9 9 8 9 10 4 6 4 4 8 5 7 6 5 9 6 5 13 14 15 17 17 18 18 17 17 16 18 18 17 18 21 21 22 21 21 20 20 19 21 17 12 14 20 18 14 13 11 11 10 12 11 10 9 10 12 12 12 11 11 11 12 13 15 15 7 5 9 9 2 2 5 4 4 4 3 3 4 4 4 6 6
8 7 8 12 10 11 12 10 8 6 8 8 5 5 3 5 3 5 10 8 11 15 16 15 18 18 18 19 17 16 16 17 20 21 21 22 23 24 22 21 21 22 22 18 16 10 10 13 17 17 14 13 13 10 10 10 8 8 9 11 11 12 11 10 10 11 13 14 12 8 8 10 8 3 2 4 4 4 3 3 3 5 4 5 5 5
11 8 8 10 11 11 9 11 8 7 3 4 2 1 3 2 6 9 7 13 16 17 17 18 19 20 20 19 16 16 18 21 23 24 25 25 23 24 23 23 19 16 17 22 23 19 12 13 14 15 15 12 13 12 10 8 8 7 9 10 11 11 10 10 10 11 14 14 12 6 6 10 9 6 5 4 4 5 4 2 2 3 3 4 5 5
6 7 9 9 6 6 5 8 8 8 1 3 5 3 6 5 5 8 13 15 15 17 19 19 18 19 19 19 20 19 22 21 21 22 23 23 22 23 24 12 12 17 17 20 22 19 13 13 13 10 13 15 14 12 10 7 7 7 8 10 11 9 9 11 11 13 14 15 9 6 7 8 8 9 6 6 6 6 5 3 3 3 3 3 3 3
4 6 4 6 3 6 6 7 5 2 3 9 7 4 5 9 10 12 12 15 16 16 17 16 16 17 19 19 20 21 21 23 22 23 22 19 21 23 18 6 9 15 20 20 21 14 11 15 13 6 11 14 13 10 10 6 6 6 7 11 9 7 8 11 13 13 15 15 10 8 7 7 7 6 5 6 6 6 5 6 5 4 3 2 2 2
3 9 3 7 3 4 4 6 8 11 10 8 8 9 10 11 11 13 14 15 17 16 16 16 19 21 21 20 22 22 20 20 23 22 19 20 22 22 19 13 14 18 19 19 18 16 14 15 14 12 14 13 11 10 9 5 6 7 9 8 6 7 7 10 12 14 15 16 11 7 7 10 8 4 5 5 4 4 4 4 3 4 3 3 2 1
4 2 5 5 5 8 12 12 11 12 11 11 9 9 12 14 13 12 13 14 13 15 16 17 20 20 21 21 21 21 20 22 23 22 16 17 22 23 21 19 20 19 19 18 16 14 15 15 12 13 15 15 12 10 9 6 7 7 7 4 5 5 6 8 11 13 16 16 11 7 13 9 3 3 3 3 3 3 3 3 4 3 2 2 2 2
12 12 10 7 5 3 4 3 4 6 8 12 14 13 11 11 13 13 13 13 16 18 20 22 21 21 21 21 22 19 19 22 22 19 15 16 18 19 20 17 15 13 16 16 14 12 13 15 13 12 14 15 12 9 10 6 5 6 4 4 4 4 6 7 9 13 13 15 12 11 12 5 4 4 3 1 2 3 3 3 3 4 3 1 1 1
8 9 7 8 10 9 9 11 12 12 13 12 10 11 12 13 15 15 14 15 18 20 21 21 21 21 17 17 18 18 20 20 19 14 16 18 13 13 17 14 14 14 13 14 15 13 13 13 14 12 13 14 10 7 8 7 5 5 4 4 3 3 5 6 9 10 14 16 16 10 10 6 3 3 3 5 5 5 5 5 4 4 3 3 1 1
5 4 2 4 6 8 11 14 14 10 10 9 10 12 13 14 16 18 19 20 20 20 21 19 15 17 15 15 16 17 20 21 14 14 16 17 14 13 12 12 13 14 13 13 13 12 11 11 12 11 10 12 11 8 8 7 5 6 6 4 3 2 3 4 9 11 13 14 15 6 5 0 5 3 5 5 4 3 4 3 2 1 4 5 4 1
9 8 6 7 9 8 9 6 11 7 6 10 13 14 15 16 18 19 19 18 19 20 19 18 19 17 17 17 17 16 18 19 18 14 15 14 13 15 13 12 12 12 12 12 11 13 12 11 11 11 10 10 10 9 9 8 4 7 6 5 4 2 3 4 5 8 11 11 11 10 10 9 3 3 1 3 2 1 1 6 5 5 4 3 7 10
9 9 8 8 8 8 8 11 9 8 11 11 13 14 16 17 16 15 18 19 19 18 18 19 21 21 19 18 16 18 15 16 20 17 15 14 13 13 12 13 12 12 12 12 11 12 12 10 6 3 10 10 10 9 9 8 4 7 6 5 5 3 4 4 3 5 7 9 9 10 11 7 6 8 8 8 6 6 4 1 2 3 4 11 8 8
Wind_Direction
261 270 301 305 289 304 10 355 337 332 332 312 305 300 306 301 288 279 288 329 348 309 282 280 310 286 291 291 291 286 282 275 280 283 273 293 303 302 37 68 91 103 87 57 44 41 42 47 51 76 81 19 320 268 216 206 204 189 188 178 176 169 173 173 168 170 175 174 174 169 178 191 199 196 189 191 193 189 183 180 179 185 175 186 182 168
191 260 267 282 299 13 354 356 325 325 319 307 296 290 287 295 301 302 317 323 316 352 317 321 328 317 299 301 302 302 293 286 283 279 271 257 222 91 77 71 67 68 61 57 70 50 33 45 47 54 72 105 257 282 262 209 208 205 188 187 178 171 176 185 179 169 182 185 185 177 182 183 188 187 183 189 192 190 181 178 175 175 181 186 172 170
246 260 276 260 335 352 344 302 307 286 290 275 277 275 263 270 310 307 292 328 349 330 316 317 314 306 292 288 292 284 288 275 258 253 253 264 308 67 69 71 67 62 72 69 42 48 84 114 120 112 100 120 190 250 248 210 210 204 198 195 187 182 178 190 180 175 184 184 192 186 178 182 184 192 189 186 185 179 176 173 172 177 188 197 177 170
260 258 280 313 33 331 288 304 292 300 265 259 260 280 316 314 302 309 344 359 332 331 296 285 279 276 282 269 263 278 325 327 282 312 334 320 354 93 80 72 65 61 38 35 65 24 18 21 114 101 81 292 280 276 285 251 211 208 199 201 195 189 186 192 189 186 183 185 191 191 173 185 185 186 183 185 175 176 169 176 182 186 193 189 184 177
319 311 339 14 314 300 324 307 302 283 317 328 308 277 285 319 330 320 327 323 304 278 287 289 281 276 286 285 301 322 318 314 304 292 279 127 83 82 72 72 71 64 53 40 33 25 28 20 37 106 87 30 334 311 277 284 245 197 207 205 201 193 191 197 199 192 180 183 192 188 177 175 193 172 177 186 181 178 183 180 183 190 191 189 194 189
270 267 345 294 358 319 299 303 297 301 280 294 306 341 339 341 316 315 315 306 296 296 279 317 325 318 336 312 290 289 269 280 326 295 30 349 97 102 104 92 74 63 53 41 35 33 32 16 22 73 92 355 233 236 196 227 275 248 199 205 200 197 192 202 203 196 186 181 190 183 188 179 188 184 176 189 188 184 188 194 184 186 188 189 185 195
305 311 282 254 250 257 287 296 297 310 336 313 306 338 330 324 313 299 297 310 304 303 313 303 282 290 278 293 314 292 290 310 328 324 272 47 69 90 80 70 82 72 65 60 47 40 32 28 22 23 19 213 241 261 201 173 211 275 242 201 199 196 195 203 204 200 194 186 194 199 196 189 189 192 190 187 190 186 189 188 186 187 185 190 193 191
250 285 318 336 356 328 313 300 311 353 322 295 314 322 315 298 302 313 308 297 293 282 281 273 272 303 311 304 320 323 304 314 280 329 349 79 72 63 29 31 47 90 82 57 59 51 39 30 25 6 345 337 329 314 268 239 155 253 280 246 197 195 196 198 206 205 204 198 192 199 198 198 197 198 190 187 189 186 184 190 190 187 185 193 196 191
308 303 304 319 327 321 290 325 345 336 320 305 300 294 299 303 293 286 283 280 268 271 273 290 295 287 292 325 310 40 300 98 26 113 66 49 63 56 48 7 16 38 78 75 67 57 44 32 25 2 349 335 318 312 331 160 183 234 273 287 245 207 196 196 203 204 207 210 200 203 204 205 205 201 197 181 187 191 189 191 183 184 188 195 195 189
280 271 285 317 302 290 0 348 332 314 298 299 302 293 276 273 263 258 254 254 281 285 313 307 304 284 287 313 358 5 330 353 9 29 76 77 53 51 45 4 31 14 45 60 60 49 36 23 2 5 353 355 337 343 331 289 170 153 264 269 268 226 212 197 199 203 212 211 209 207 210 212 205 205 201 185 185 187 183 190 182 187 189 189 192 192
271 264 264 263 301 17 342 325 308 290 284 287 271 285 296 288 295 323 317 299 283 270 285 276 282 302 305 296 332 26 1 358 304 130 66 34 64 62 58 40 33 35 44 44 68 56 41 25 12 11 0 351 344 345 336 320 296 159 198 243 255 249 225 212 203 199 210 213 215 216 213 216 215 206 205 195 185 183 177 188 184 187 191 185 191 192
313 273 154 64 59 299 330 315 305 316 322 343 333 317 307 306 321 292 285 327 320 295 284 327 321 349 302 38 7 36 49 39 37 49 48 47 45 45 47 47 45 43 37 46 49 44 35 23 23 14 3 352 349 345 339 325 319 299 229 251 278 269 252 233 216 207 208 213 220 223 220 221 223 216 208 205 198 181 184 186 187 188 187 188 186 186
278 277 12 145 77 25 343 324 311 344 330 344 318 310 338 306 312 334 331 299 289 294 327 334 350 350 311 336 53 82 79 69 53 49 51 48 42 43 42 40 38 46 41 36 42 47 33 21 16 11 360 352 354 346 341 331 323 308 293 254 242 263 273 280 278 239 210 216 228 225 227 226 223 226 217 210 213 193 189 187 187 185 192 185 183 185
306 310 354 23 31 50 328 330 336 323 347 315 312 336 313 316 321 300 303 289 281 280 345 326 342 304 331 290 11 50 70 78 78 65 60 61 50 37 43 31 32 38 32 27 46 41 33 20 13 7 357 354 348 341 336 330 322 317 304 324 336 325 330 319 315 307 293 262 232 232 236 235 227 227 224 220 214 206 196 188 191 187 193 189 187 184
322 293 52 341 334 4 329 326 351 326 316 313 284 277 309 297 357 325 308 317 314 309 312 323 316 330 324 0 325 109 85 77 68 67 62 54 52 46 40 38 24 22 32 16 16 38 32 23 11 6 355 350 347 338 335 329 325 324 325 22 346 344 319 320 321 318 307 295 299 281 261 244 236 233 231 230 222 215 194 188 189 193 190 195 188 189
298 302 51 50 340 330 312 1 338 331 313 279 359 332 274 15 8 291 309 306 305 307 304 308 290 304 275 8 55 88 96 79 74 57 38 60 55 31 22 13 13 11 16 14 16 11 12 9 10 9 360 354 342 337 331 330 328 328 338 37 279 245 288 292 301 315 318 315 310 312 301 285 262 243 242 240 232 232 217 194 193 193 187 194 186 186
321 283 337 344 342 326 353 343 308 342 298 331 321 289 317 353 317 306 289 276 290 283 274 279 271 270 299 76 58 52 47 45 52 30 31 26 22 30 31 24 21 22 17 13 13 12 9 9 5 357 355 350 338 334 336 333 336 336 1 346 335 333 300 301 297 291 274 267 272 302 307 294 290 275 243 240 236 227 232 218 198 196 193 197 191 182
316 308 314 313 324 327 330 336 306 279 263 268 279 295 342 316 293 271 278 303 288 288 291 306 295 298 318 334 69 65 69 79 25 33 50 38 29 30 26 20 17 16 13 8 9 8 6 7 3 1 356 351 351 350 348 349 343 343 358 355 0 345 328 313 309 314 302 292 280 270 292 306 291 288 280 253 238 227 224 224 210 195 201 202 194 182
335 296 300 317 312 311 345 328 294 277 243 245 254 329 309 319 303 302 322 297 292 277 282 259 278 286 286 286 55 73 50 46 43 40 39 38 35 26 19 16 11 13 10 6 2 0 2 359 2 1 355 356 360 358 350 348 351 347 351 355 357 358 348 313 305 304 301 290 286 277 273 300 298 289 289 285 277 248 229 228 218 212 208 203 200 183
284 277 286 284 304 342 317 299 287 300 69 260 342 293 301 300 283 271 250 284 300 297 304 298 297 285 255 291 19 38 47 48 44 43 35 33 35 24 18 10 7 7 6 2 360 354 355 356 354 359 359 359 359 358 357 354 350 352 353 347 340 346 354 337 322 317 313 305 282 263 252 256 282 284 287 304 308 297 274 239 227 230 221 215 206 186
268 265 279 289 317 314 286 266 283 342 321 314 312 306 306 289 314 298 282 268 270 284 288 302 294 292 306 359 31 80 57 66 54 40 35 22 26 21 19 13 3 3 357 356 358 352 351 353 353 353 354 355 359 0 359 355 352 351 357 352 347 331 337 339 336 332 339 358 324 323 314 282 314 289 273 256 251 291 310 307 300 265 238 228 222 194
304 280 282 307 303 279 277 286 296 310 312 304 315 295 298 299 297 308 308 319 304 285 281 283 278 283 310 354 340 59 67 60 45 45 32 16 11 6 10 5 3 1 358 344 348 346 351 352 349 348 344 351 355 359 355 354 350 354 355 349 344 338 335 328 322 312 295 262 247 263 250 253 229 258 265 264 253 221 222 225 241 277 268 237 227 219
360 315 289 280 273 276 278 282 284 278 289 340 293 292 275 253 252 261 272 281 297 294 310 288 299 271 325 334 322 70 92 84 60 40 35 11 8 10 1 356 353 350 345 345 343 337 338 346 340 337 343 349 348 345 350 353 352 352 351 350 347 340 332 328 318 305 277 260 246 246 272 264 256 239 230 249 256 258 246 234 234 239 270 285 272 254
324 272 268 267 272 279 280 272 253 246 216 226 234 246 268 315 354 321 306 313 297 295 285 282 261 274 307 320 309 104 111 109 99 63 28 13 1 351 346 344 340 339 330 330 327 336 337 326 320 324 341 343 342 345 344 345 346 348 349 349 349 346 336 328 322 313 305 288 270 258 237 270 269 272 254 235 232 244 248 247 243 243 214 212 272 264
324 276 325 307 298 289 288 299 220 186 211 287 353 329 300 307 318 317 311 305 282 270 275 269 267 277 289 295 303 306 304 318 332 53 23 357 342 338 333 332 332 329 330 329 326 328 335 330 333 338 333 341 342 335 335 334 339 341 340 347 354 347 342 335 328 322 317 304 297 304 254 254 277 273 264 247 232 240 252 251 246 253 243 198 209 266
291 279 283 277 293 299 296 301 354 356 328 320 306 304 313 311 311 320 299 300 277 276 275 267 271 277 292 299 303 309 317 321 329 333 12 338 343 333 328 326 325 329 328 323 327 326 328 333 332 334 333 328 333 334 331 330 331 336 334 338 348 343 339 336 328 320 317 302 297 300 294 257 240 258 256 245 238 249 241 240 243 247 264 238 201 200
267 261 247 253 265 271 281 295 314 321 309 298 302 303 299 298 292 286 293 280 270 287 277 268 279 291 293 303 308 310 308 310 314 319 319 323 339 336 325 317 315 326 324 322 325 324 325 327 334 336 333 337 330 326 327 327 329 331 335 335 340 341 337 336 333 326 313 306 301 304 282 268 264 263 275 272 243 236 250 256 247 278 269 247 234 146
250 258 251 255 257 264 275 281 291 295 286 284 285 286 293 291 287 277 262 261 281 293 271 275 288 291 293 304 299 296 305 315 316 320 330 331 335 324 307 305 322 320 316 314 317 324 323 327 336 343 336 330 326 321 319 325 328 329 335 334 335 334 335 333 329 324 316 307 316 321 312 298 276 263 261 269 275 264 220 206 228 222 230 220 247 204
259 272 281 292 284 281 281 280 278 276 275 281 280 278 276 276 272 267 263 266 271 262 274 288 293 292 290 291 306 321 328 315 313 319 331 328 308 293 306 318 313 312 310 311 315 317 318 318 336 338 331 326 322 322 323 322 324 325 327 326 327 329 327 329 325 317 313 305 292 304 302 322 310 276 264 267 273 276 262 206 244 255 230 227 223 218
291 266 276 276 284 286 287 287 284 279 277 274 271 269 267 266 270 271 273 275 271 272 278 284 279 274 293 318 316 312 315 320 323 324 319 305 298 309 314 303 304 306 307 309 310 313 313 316 325 324 318 317 320 321 320 318 320 322 323 324 325 326 326 326 321 316 310 304 286 271 283 306 330 306 284 261 259 271 269 233 212 233 240 207 193 144
163 261 303 296 291 281 279 276 271 267 266 269 271 274 276 280 276 271 277 277 275 271 278 287 302 305 310 311 313 324 323 316 309 301 295 301 307 306 302 303 306 308 307 305 307 309 310 316 320 318 318 319 319 316 314 318 318 322 322 323 322 321 324 323 319 316 310 306 296 255 261 293 12 303 296 284 259 227 259 254 204 204 223 147 117 186
222 268 280 277 278 276 269 273 280 286 291 293 293 287 279 275 271 273 270 300 315 307 308 305 296 297 312 317 321 313 307 302 302 307 309 305 306 307 302 301 299 298 301 305 303 301 302 301 306 313 317 318 314 315 317 318 323 321 319 320 321 322 322 317 313 309 304 297 304 273 254 240 250 289 319 280 266 277 249 246 231 190 236 152 137 144
261 276 275 283 280 275 284 285 292 302 300 281 273 281 301 298 310 309 295 297 294 310 308 293 284 300 312 314 303 300 300 303 303 304 302 297 293 297 303 305 305 304 303 300 299 302 302 304 308 310 316 312 314 313 312 319 317 318 319 319 320 320 313 309 305 303 299 296 297 288 260 235 213 196 32 337 329 229 223 228 162 183 189 195 155 139
259 256 263 266 268 281 290 296 300 290 265 267 44 20 316 299 299 293 295 299 303 307 294 300 296 301 299 300 300 310 307 297 299 300 304 310 316 315 307 298 295 300 302 306 320 326 318 314 313 312 305 305 306 309 316 311 311 317 318 314 316 315 308 303 303 301 298 297 293 282 275 249 195 168 130 50 333 324 254 228 190 188 170 149 156 141
244 247 255 250 257 271 288 293 287 264 268 205 104 294 315 354 0 324 319 311 306 302 299 297 300 301 302 303 301 286 290 307 311 311 305 305 299 291 293 298 302 303 300 324 323 313 311 309 304 299 297 297 303 306 303 305 313 317 311 315 315 316 310 302 299 297 294 291 286 282 263 253 209 206 146 142 170 14 340 320 311 301 127 115 93 110
237 242 253 255 259 276 274 256 254 237 341 320 312 297 61 25 348 350 307 302 302 296 303 299 299 301 297 285 275 294 317 310 307 301 300 303 303 304 303 309 312 309 309 310 298 295 292 292 293 291 287 293 294 298 302 305 311 309 311 313 311 315 313 306 303 298 292 288 287 285 265 249 241 209 217 170 137 126 73 16 4 328 144 117 128 125
238 243 243 261 253 267 270 271 264 292 294 287 278 41 49 360 358 328 307 295 304 289 281 286 280 279 289 301 321 318 308 308 304 297 299 303 303 302 310 314 320 317 313 308 298 283 277 286 294 299 317 323 308 302 295 294 301 309 309 308 311 316 315 310 309 307 306 294 279 268 278 275 254 233 202 179 133 113 112 100 35 336 1 149 151 142
221 232 227 252 250 236 259 274 281 280 278 311 105 111 86 31 203 302 299 288 283 277 268 270 299 331 327 317 313 313 317 305 295 293 301 305 311 317 319 316 315 311 308 310 309 303 295 300 305 298 205 256 261 274 279 284 296 303 302 303 310 315 316 307 305 318 317 311 286 249 260 264 253 235 206 129 104 124 135 136 139 120 334 1 66 144
216 228 252 255 269 273 262 264 261 268 267 304 291 21 338 3 51 357 296 285 274 281 337 352 336 334 330 324 318 318 310 297 293 296 302 307 309 309 307 306 301 299 301 302 310 319 316 306 290 293 242 254 259 268 279 284 290 298 298 302 308 315 311 303 305 316 314 308 297 257 252 274 248 222 146 112 110 91 79 82 84 96 78 37 292 54
226 231 232 242 243 247 253 252 260 249 273 302 314 278 325 50 47 5 291 280 356 2 339 332 327 323 317 312 309 300 296 293 296 300 308 309 306 304 304 302 299 297 297 298 299 311 321 317 302 290 290 275 252 253 272 279 287 295 299 300 308 308 305 306 307 308 307 298 296 270 239 264 267 199 164 117 102 73 64 45 42 29 14 33 43 52
220 229 227 239 245 245 238 257 265 266 267 268 292 55 81 76 8 271 262 282 337 335 328 323 315 311 309 307 305 298 299 297 299 302 305 303 302 300 300 299 299 299 300 305 303 308 304 292 293 294 292 290 293 286 279 281 285 289 295 300 303 301 306 303 295 302 298 294 282 258 219 240 254 239 177 127 114 107 80 58 45 31 28 43 50 57
220 216 229 238 246 252 256 263 261 275 342 46 282 282 38 317 251 262 303 341 328 319 315 311 310 309 308 306 307 301 298 302 303 302 302 301 300 299 297 299 312 335 341 324 309 296 287 288 288 300 295 285 287 291 284 278 278 282 293 296 294 300 306 300 307 310 305 295 280 266 229 226 211 208 185 165 153 143 135 126 74 56 38 35 47 52
233 241 248 252 249 247 253 260 266 269 162 131 29 298 214 225 267 317 322 310 309 308 309 307 304 302 306 306 305 307 306 304 301 301 299 300 303 302 301 319 338 318 307 295 286 291 312 298 287 293 310 303 293 285 279 276 268 274 288 288 297 304 309 317 314 316 312 306 304 307 290 251 189 192 183 158 150 141 143 150 127 108 79 75 46 45
242 254 246 241 217 259 247 245 253 274 305 27 356 305 316 305 311 300 304 307 307 307 306 306 311 315 318 313 308 304 302 301 301 299 303 307 303 300 302 305 283 280 282 279 278 287 271 275 279 276 273 275 280 283 282 265 238 261 281 287 302 309 320 324 321 320 321 318 317 302 277 237 196 208 150 145 146 141 143 146 147 142 123 113 83 61
220 259 279 271 283 268 274 288 314 345 331 319 322 305 290 292 304 316 310 306 310 308 312 310 310 308 307 306 302 300 300 298 296 297 302 302 303 300 300 297 297 295 294 293 291 293 288 288 295 303 295 279 268 272 272 239 219 248 265 280 299 308 321 326 322 326 325 322 313 294 269 239 204 167 146 138 138 130 128 123 118 116 121 121 125 115
318 340 18 357 297 315 304 293 290 292 305 306 291 303 314 319 314 314 316 312 311 312 311 306 305 304 303 303 301 297 295 297 297 299 292 292 291 293 294 295 301 304 302 299 299 304 302 295 296 294 285 280 282 283 280 237 204 230 247 273 282 300 316 326 323 321 320 312 306 287 254 217 162 137 136 144 127 118 116 116 116 107 94 91 111 133
237 240 250 257 273 301 269 287 278 288 308 310 303 296 296 308 318 323 316 317 313 313 309 305 303 301 299 299 296 295 297 295 298 298 289 281 286 297 299 298 300 300 303 305 307 308 297 291 288 291 296 299 291 283 285 276 198 218 229 246 274 296 319 328 318 314 318 312 304 259 254 212 185 155 147 160 150 139 136 120 118 121 124 137 119 83
299 343 275 240 249 250 264 275 291 292 276 286 320 332 324 327 325 323 320 318 315 312 309 305 305 299 307 304 301 294 291 295 302 299 298 298 297 299 301 297 294 297 294 294 297 294 292 292 288 292 297 288 284 298 296 289 195 198 202 223 241 292 314 322 308 312 310 303 292 222 218 207 221 158 167 189 185 185 166 164 154 151 151 141 123 90
42 20 257 284 271 267 279 273 270 310 328 327 335 332 326 321 320 316 313 312 312 307 308 311 314 310 304 291 293 299 303 302 294 293 298 303 302 293 291 297 301 300 292 283 288 290 288 286 287 287 284 281 283 287 287 277 191 187 192 201 203 239 295 305 305 310 307 308 309 346 349 284 182 201 190 195 197 203 157 145 135 96 131 141 144 137
291 260 264 268 260 259 255 301 11 344 322 323 319 317 320 321 316 317 320 318 316 316 318 313 310 311 311 307 306 304 303 305 304 300 300 299 299 296 308 307 304 300 292 289 291 295 295 294 299 304 296 298 301 293 283 286 206 180 183 186 188 213 264 282 296 304 308 315 320 353 343 340 352 251 66 54 19 11 77 72 70 109 35 35 78 105
260 261 258 254 256 268 323 346 338 323 304 300 309 314 311 313 315 318 315 320 326 328 325 322 320 319 317 314 319 315 309 311 314 307 301 308 309 308 315 315 311 306 297 297 297 293 291 295 291 279 303 298 291 288 284 276 227 178 179 174 182 202 240 267 282 290 301 311 324 336 329 334 9 9 15 10 7 360 353 117 152 286 127 125 145 133